Regional Weather Roundup
Issued by NWS Goodland, KS

Home | Current Version | Previous Version | Text Only | Print | Product List | Glossary Off
Versions: 1 2 3 4 5 6 7 8 9 10 11 12 13 14 15 16 17 18 19 20 21 22 23 24 25 26 27 28 29 30 31 32 33 34 35 36 37 38 39 40 41 42 43 44 45 46 47 48 49 50

000
ASUS43 KGLD 010959
RWRGLD

GOODLAND FORECAST AREA HOURLY WEATHER ROUNDUP
NATIONAL WEATHER SERVICE GOODLAND KS
300 AM MST SUN MAR 01 2015

...OFFICIAL OBSERVATIONS...

CITY           SKY/WX    TMP DP  RH WIND       PRES   REMARKS
GOODLAND KS    CLOUDY    19  17  92 S3        30.14S
HILL CITY KS   CLOUDY    19  15  84 CALM      30.26S
IMPERIAL NEB     N/A     19  12  74 CALM      30.18R
MCCOOK NEB     PTCLDY    21  15  78 S3        30.21F
AKRON CO       CLOUDY    16  14  92 CALM      30.06F
BURLINGTON CO  CLOUDY    21  14  74 SW6       30.09S
LIMON CO       FOG        2   1  96 N6        30.03S VSB 1/4
$$

...UNOFFICIAL OBSERVATIONS...

CITY           SKY/WX    TMP DP  RH WIND       PRES   REMARKS
COLBY KS       CLOUDY    21  21 100 S3        30.18S
GOVE KS          N/A     19  32 100 MISG        N/A
LENORA KS        N/A     18  32 100 CALM        N/A
NORTON KS      MOCLDY    16  12  86 S5        30.22F
SHARON SPRINGS   N/A     20  18  92 CALM        N/A
KIT CARSON CO    N/A     19  15  82 MISG        N/A
YUMA CO          N/A     17  13  84 CALM        N/A
$$



USA.gov is the U.S. government's official web portal to all federal, state and local government web resources and services.